Time,TemperatureF,DewpointF,PressureIn,WindDirection,WindDirectionDegrees,WindSpeedMPH,WindSpeedGustMPH,Humidity,HourlyPrecipIn,Conditions,Clouds,dailyrainin,SoftwareType,DateUTC
2013-08-27 00:02:00,74.9,67.2,29.85,SSW,205,0.0,0.0,77,0.00,,CLR,0.00,VWS V14.01,2013-08-27 04:02:00,
2013-08-27 00:07:00,74.9,67.2,29.85,SSW,202,0.0,0.0,77,0.00,,CLR,0.00,VWS V14.01,2013-08-27 04:07:00,
2013-08-27 00:13:00,75.1,67.4,29.85,SSW,206,0.0,0.0,77,0.00,,CLR,0.00,VWS V14.01,2013-08-27 04:13:00,
2013-08-27 00:17:00,75.1,67.4,29.85,SSW,209,0.0,0.0,77,0.00,,CLR,0.00,VWS V14.01,2013-08-27 04:17:00,
2013-08-27 00:22:00,74.9,67.2,29.85,SSW,209,0.0,0.0,77,0.00,,CLR,0.00,VWS V14.01,2013-08-27 04:22:00,
2013-08-27 00:27:00,74.9,67.2,29.85,SW,223,0.0,0.0,77,0.00,,CLR,0.00,VWS V14.01,2013-08-27 04:27:00,
2013-08-27 00:32:00,74.9,67.2,29.84,SSW,206,0.0,0.0,77,0.00,,CLR,0.00,VWS V14.01,2013-08-27 04:32:00,
2013-08-27 00:37:00,74.9,67.6,29.84,SW,226,0.0,0.0,78,0.00,,CLR,0.00,VWS V14.01,2013-08-27 04:37:00,
2013-08-27 00:42:00,74.9,67.6,29.84,SSW,208,0.0,0.0,78,0.00,,CLR,0.00,VWS V14.01,2013-08-27 04:42:00,
2013-08-27 00:52:00,74.9,67.6,29.83,SW,217,0.0,0.0,78,0.00,,CLR,0.00,VWS V14.01,2013-08-27 04:52:00,
2013-08-27 00:57:00,74.9,67.6,29.83,SSW,210,0.0,0.0,78,0.00,,CLR,0.00,VWS V14.01,2013-08-27 04:57:00,
2013-08-27 01:02:00,74.9,67.6,29.83,SSW,203,0.0,0.0,78,0.00,,CLR,0.00,VWS V14.01,2013-08-27 05:02:00,
2013-08-27 01:07:00,74.7,67.4,29.83,WSW,251,0.0,0.0,78,0.00,,CLR,0.00,VWS V14.01,2013-08-27 05:07:00,
2013-08-27 01:12:00,74.7,67.4,29.83,SW,222,0.0,0.0,78,0.00,,CLR,0.00,VWS V14.01,2013-08-27 05:12:00,
2013-08-27 01:17:00,74.6,67.7,29.83,SW,216,0.0,0.0,79,0.00,,CLR,0.00,VWS V14.01,2013-08-27 05:17:00,
2013-08-27 01:22:00,74.6,67.7,29.83,SSW,205,0.0,0.0,79,0.00,,CLR,0.00,VWS V14.01,2013-08-27 05:22:00,
2013-08-27 01:32:00,74.4,67.5,29.83,SSW,199,0.0,0.0,79,0.00,,CLR,0.00,VWS V14.01,2013-08-27 05:32:00,
2013-08-27 01:37:00,74.2,67.6,29.83,SW,219,0.0,0.0,80,0.00,,CLR,0.00,VWS V14.01,2013-08-27 05:37:00,
2013-08-27 01:47:00,73.9,67.3,29.83,SSW,213,0.0,0.0,80,0.00,,CLR,0.00,VWS V14.01,2013-08-27 05:47:00,
2013-08-27 01:52:00,73.9,67.7,29.83,SSW,212,0.0,0.0,81,0.00,,CLR,0.00,VWS V14.01,2013-08-27 05:52:00,
2013-08-27 02:02:00,73.7,67.5,29.83,SSW,212,0.0,0.0,81,0.00,,CLR,0.00,VWS V14.01,2013-08-27 06:02:00,
2013-08-27 02:07:00,73.5,67.7,29.83,SSW,196,0.0,0.0,82,0.00,,CLR,0.00,VWS V14.01,2013-08-27 06:07:00,
2013-08-27 02:12:00,73.3,67.5,29.83,SSW,198,0.0,0.0,82,0.00,,CLR,0.00,VWS V14.01,2013-08-27 06:12:00,
2013-08-27 02:17:00,73.3,67.5,29.82,SW,223,0.0,0.0,82,0.00,,CLR,0.00,VWS V14.01,2013-08-27 06:17:00,
2013-08-27 02:22:00,73.3,67.8,29.82,SSW,203,0.0,0.0,83,0.00,,CLR,0.00,VWS V14.01,2013-08-27 06:22:00,
2013-08-27 02:32:00,73.2,67.7,29.81,SSW,210,0.0,0.0,83,0.00,,CLR,0.00,VWS V14.01,2013-08-27 06:32:00,
2013-08-27 02:37:00,73.2,67.7,29.81,SSW,208,0.0,0.0,83,0.00,,CLR,0.00,VWS V14.01,2013-08-27 06:37:00,
2013-08-27 02:42:00,73.0,67.5,29.81,SSW,212,0.0,0.0,83,0.00,,CLR,0.00,VWS V14.01,2013-08-27 06:42:00,
2013-08-27 02:47:00,73.0,67.5,29.82,SSW,208,0.0,0.0,83,0.00,,CLR,0.00,VWS V14.01,2013-08-27 06:47:00,
2013-08-27 02:52:00,73.0,67.9,29.82,SSW,208,0.0,0.0,84,0.00,,CLR,0.00,VWS V14.01,2013-08-27 06:52:00,
2013-08-27 03:02:00,72.8,67.7,29.82,SW,216,0.0,0.0,84,0.00,,CLR,0.00,VWS V14.01,2013-08-27 07:02:00,
2013-08-27 03:07:00,72.8,67.7,29.82,SW,217,0.0,0.0,84,0.00,,CLR,0.00,VWS V14.01,2013-08-27 07:07:00,
2013-08-27 03:12:00,72.8,67.7,29.82,SW,219,0.0,0.0,84,0.00,,CLR,0.00,VWS V14.01,2013-08-27 07:12:00,
2013-08-27 03:22:00,72.8,67.7,29.81,SW,236,0.0,0.0,84,0.00,,CLR,0.00,VWS V14.01,2013-08-27 07:22:00,
2013-08-27 03:27:00,72.7,67.6,29.81,SW,223,0.0,0.0,84,0.00,,CLR,0.00,VWS V14.01,2013-08-27 07:27:00,
2013-08-27 03:32:00,72.7,67.6,29.81,SW,223,0.0,0.0,84,0.00,,CLR,0.00,VWS V14.01,2013-08-27 07:32:00,
2013-08-27 03:42:00,72.3,67.5,29.81,SW,222,0.0,0.0,85,0.00,,SCT110,0.00,VWS V14.01,2013-08-27 07:42:00,
2013-08-27 03:47:00,72.3,67.5,29.81,SW,216,0.0,0.0,85,0.00,,SCT110,0.00,VWS V14.01,2013-08-27 07:47:00,
2013-08-27 03:52:00,72.3,67.9,29.81,SW,236,0.0,0.0,86,0.00,,SCT110,0.00,VWS V14.01,2013-08-27 07:52:00,
2013-08-27 04:02:00,72.3,67.9,29.80,SW,236,0.0,0.0,86,0.00,,SCT110,0.00,VWS V14.01,2013-08-27 08:02:00,
2013-08-27 04:07:00,72.3,67.9,29.80,SW,219,0.0,0.0,86,0.00,,SCT110,0.00,VWS V14.01,2013-08-27 08:07:00,
2013-08-27 04:17:00,72.3,67.9,29.80,SW,217,0.0,0.0,86,0.00,,SCT110,0.00,VWS V14.01,2013-08-27 08:17:00,
2013-08-27 04:22:00,72.3,67.9,29.80,SW,220,0.0,0.0,86,0.00,,SCT110,0.00,VWS V14.01,2013-08-27 08:22:00,
2013-08-27 04:27:00,72.3,67.9,29.80,WSW,243,0.0,0.0,86,0.00,,SCT110,0.00,VWS V14.01,2013-08-27 08:27:00,
2013-08-27 04:32:00,72.3,67.9,29.80,WSW,248,0.0,0.0,86,0.00,,SCT110,0.00,VWS V14.01,2013-08-27 08:32:00,
2013-08-27 04:37:00,72.3,67.9,29.80,SSW,213,0.0,0.0,86,0.00,,SCT110,0.00,VWS V14.01,2013-08-27 08:37:00,
2013-08-27 04:42:00,72.3,67.9,29.80,WSW,239,0.0,0.0,86,0.00,,CLR,0.00,VWS V14.01,2013-08-27 08:42:00,
2013-08-27 04:47:00,72.3,67.9,29.80,SW,227,0.0,0.0,86,0.00,,CLR,0.00,VWS V14.01,2013-08-27 08:47:00,
2013-08-27 04:52:00,72.3,67.9,29.80,SW,220,0.0,0.0,86,0.00,,CLR,0.00,VWS V14.01,2013-08-27 08:52:00,
2013-08-27 04:57:00,72.3,67.9,29.80,SW,219,0.0,0.0,86,0.00,,CLR,0.00,VWS V14.01,2013-08-27 08:57:00,
2013-08-27 05:07:00,72.1,67.7,29.80,SSW,200,0.0,0.0,86,0.00,,CLR,0.00,VWS V14.01,2013-08-27 09:07:00,
2013-08-27 05:12:00,72.1,67.7,29.80,SW,220,0.0,0.0,86,0.00,,CLR,0.00,VWS V14.01,2013-08-27 09:12:00,
2013-08-27 05:17:00,72.1,67.7,29.80,SW,220,0.0,0.0,86,0.00,,CLR,0.00,VWS V14.01,2013-08-27 09:17:00,
2013-08-27 05:22:00,72.1,67.7,29.80,SW,220,0.0,0.0,86,0.00,,CLR,0.00,VWS V14.01,2013-08-27 09:22:00,
2013-08-27 05:27:00,72.1,67.7,29.80,SW,217,0.0,0.0,86,0.00,,CLR,0.00,VWS V14.01,2013-08-27 09:27:00,
2013-08-27 05:32:00,72.1,67.7,29.80,SW,215,0.0,0.0,86,0.00,,CLR,0.00,VWS V14.01,2013-08-27 09:32:00,
2013-08-27 05:42:00,72.1,67.7,29.80,SSW,210,0.0,0.0,86,0.00,,CLR,0.00,VWS V14.01,2013-08-27 09:42:00,
2013-08-27 05:47:00,72.1,67.7,29.79,SW,222,0.0,0.0,86,0.00,,CLR,0.00,VWS V14.01,2013-08-27 09:47:00,
2013-08-27 05:52:00,72.0,67.6,29.79,SW,229,0.0,0.0,86,0.00,,CLR,0.00,VWS V14.01,2013-08-27 09:52:00,
2013-08-27 05:57:00,72.0,67.6,29.79,SW,215,0.0,0.0,86,0.00,,CLR,0.00,VWS V14.01,2013-08-27 09:57:00,
2013-08-27 06:02:00,72.1,67.7,29.79,SSW,212,0.0,0.0,86,0.00,,CLR,0.00,VWS V14.01,2013-08-27 10:02:00,
2013-08-27 06:12:00,72.1,67.7,29.79,SW,219,0.0,0.0,86,0.00,,CLR,0.00,VWS V14.01,2013-08-27 10:12:00,
2013-08-27 06:17:00,72.0,67.6,29.79,SW,215,0.0,0.0,86,0.00,,CLR,0.00,VWS V14.01,2013-08-27 10:17:00,
2013-08-27 06:22:00,72.0,67.6,29.79,SW,215,0.0,0.0,86,0.00,,CLR,0.00,VWS V14.01,2013-08-27 10:22:00,
2013-08-27 06:27:00,72.0,67.6,29.79,SSW,209,0.0,0.0,86,0.00,,CLR,0.00,VWS V14.01,2013-08-27 10:27:00,
2013-08-27 06:37:00,72.0,67.6,29.79,SSW,209,0.0,0.0,86,0.00,,CLR,0.00,VWS V14.01,2013-08-27 10:37:00,
2013-08-27 06:42:00,71.8,67.4,29.79,SSW,205,0.0,0.0,86,0.00,,CLR,0.00,VWS V14.01,2013-08-27 10:42:00,
2013-08-27 06:47:00,71.8,67.4,29.79,SSW,205,0.0,0.0,86,0.00,,CLR,0.00,VWS V14.01,2013-08-27 10:47:00,
2013-08-27 06:52:00,71.6,67.2,29.79,SSW,205,0.0,0.0,86,0.00,,CLR,0.00,VWS V14.01,2013-08-27 10:52:00,
2013-08-27 07:02:00,71.6,67.2,29.80,SSW,205,0.0,0.0,86,0.00,,CLR,0.00,VWS V14.01,2013-08-27 11:02:00,
2013-08-27 07:07:00,71.6,67.2,29.80,SW,216,0.0,0.0,86,0.00,,CLR,0.00,VWS V14.01,2013-08-27 11:07:00,
2013-08-27 07:12:00,71.6,67.2,29.80,SW,224,0.0,0.0,86,0.00,,CLR,0.00,VWS V14.01,2013-08-27 11:12:00,
2013-08-27 07:17:00,71.8,67.4,29.80,SSW,206,0.0,0.0,86,0.00,,CLR,0.00,VWS V14.01,2013-08-27 11:17:00,
2013-08-27 07:22:00,71.8,67.4,29.80,SSW,206,0.0,0.0,86,0.00,,CLR,0.00,VWS V14.01,2013-08-27 11:22:00,
2013-08-27 07:32:00,71.8,67.4,29.80,SSW,209,0.0,0.0,86,0.00,,CLR,0.00,VWS V14.01,2013-08-27 11:32:00,
2013-08-27 07:42:00,72.0,67.6,29.80,SSW,209,0.0,0.0,86,0.00,,CLR,0.00,VWS V14.01,2013-08-27 11:42:00,
2013-08-27 07:47:00,72.0,67.6,29.81,SW,216,0.0,0.0,86,0.00,,CLR,0.00,VWS V14.01,2013-08-27 11:47:00,
2013-08-27 07:52:00,72.0,67.6,29.81,SW,216,0.0,0.0,86,0.00,,CLR,0.00,VWS V14.01,2013-08-27 11:52:00,
2013-08-27 08:02:00,72.1,67.7,29.81,SSW,213,0.0,0.0,86,0.00,,CLR,0.00,VWS V14.01,2013-08-27 12:02:00,
2013-08-27 08:07:00,72.1,67.3,29.81,WSW,248,0.0,0.0,85,0.00,,CLR,0.00,VWS V14.01,2013-08-27 12:07:00,
2013-08-27 08:12:00,72.1,67.3,29.81,SSW,212,0.0,0.0,85,0.00,,CLR,0.00,VWS V14.01,2013-08-27 12:12:00,
2013-08-27 08:22:00,72.3,67.5,29.82,SW,230,0.0,0.0,85,0.00,,CLR,0.00,VWS V14.01,2013-08-27 12:22:00,
2013-08-27 08:32:00,72.3,67.5,29.82,SW,234,0.0,0.0,85,0.00,,CLR,0.00,VWS V14.01,2013-08-27 12:32:00,
2013-08-27 08:37:00,72.5,67.7,29.82,SSW,210,0.0,0.0,85,0.00,,CLR,0.00,VWS V14.01,2013-08-27 12:37:00,
2013-08-27 08:47:00,72.7,67.6,29.82,SSW,205,0.0,0.0,84,0.00,,CLR,0.00,VWS V14.01,2013-08-27 12:47:00,
2013-08-27 08:52:00,72.8,67.7,29.82,SSW,196,0.0,0.0,84,0.00,,CLR,0.00,VWS V14.01,2013-08-27 12:52:00,
2013-08-27 08:57:00,72.8,67.7,29.82,SSW,210,0.0,0.0,84,0.00,,CLR,0.00,VWS V14.01,2013-08-27 12:57:00,
2013-08-27 09:02:00,73.0,67.9,29.81,SSW,210,0.0,0.0,84,0.00,,CLR,0.00,VWS V14.01,2013-08-27 13:02:00,
2013-08-27 09:07:00,73.2,68.1,29.81,SW,224,0.0,0.0,84,0.00,,CLR,0.00,VWS V14.01,2013-08-27 13:07:00,
2013-08-27 09:12:00,73.2,67.7,29.81,SW,220,0.0,0.0,83,0.00,,CLR,0.00,VWS V14.01,2013-08-27 13:12:00,
2013-08-27 09:17:00,73.3,67.8,29.81,SW,215,0.0,0.0,83,0.00,,CLR,0.00,VWS V14.01,2013-08-27 13:17:00,
2013-08-27 09:22:00,73.5,68.0,29.81,WSW,237,0.0,0.0,83,0.00,,CLR,0.00,VWS V14.01,2013-08-27 13:22:00,
2013-08-27 09:27:00,73.7,68.2,29.81,SW,230,0.0,0.0,83,0.00,,CLR,0.00,VWS V14.01,2013-08-27 13:27:00,
2013-08-27 09:32:00,73.9,68.4,29.81,SSW,205,0.0,0.0,83,0.00,,CLR,0.00,VWS V14.01,2013-08-27 13:32:00,
2013-08-27 09:37:00,74.0,68.2,29.81,SSW,203,0.0,0.0,82,0.00,,CLR,0.00,VWS V14.01,2013-08-27 13:37:00,
2013-08-27 09:42:00,74.2,68.4,29.81,SSW,210,0.0,0.0,82,0.00,,CLR,0.00,VWS V14.01,2013-08-27 13:42:00,
2013-08-27 09:47:00,74.4,68.6,29.80,SW,227,0.0,0.0,82,0.00,,CLR,0.00,VWS V14.01,2013-08-27 13:47:00,
2013-08-27 09:52:00,74.6,68.8,29.80,SSW,206,0.0,0.0,82,0.00,,CLR,0.00,VWS V14.01,2013-08-27 13:52:00,
2013-08-27 09:57:00,74.6,68.8,29.80,SW,230,0.0,0.0,82,0.00,,CLR,0.00,VWS V14.01,2013-08-27 13:57:00,
2013-08-27 10:02:00,74.7,68.8,29.80,SSW,202,0.0,0.0,82,0.00,,CLR,0.00,VWS V14.01,2013-08-27 14:02:00,
2013-08-27 10:12:00,75.4,69.2,29.80,SW,230,0.0,0.0,81,0.00,,CLR,0.00,VWS V14.01,2013-08-27 14:12:00,
2013-08-27 10:17:00,76.0,69.4,29.80,SW,222,0.0,0.0,80,0.00,,CLR,0.00,VWS V14.01,2013-08-27 14:17:00,
2013-08-27 10:22:00,76.1,69.1,29.80,SW,229,0.0,0.0,79,0.00,,CLR,0.00,VWS V14.01,2013-08-27 14:22:00,
2013-08-27 10:27:00,76.7,69.7,29.80,SW,230,0.0,0.0,79,0.00,,CLR,0.00,VWS V14.01,2013-08-27 14:27:00,
2013-08-27 10:32:00,77.4,70.0,29.80,WSW,250,0.0,0.0,78,0.00,,CLR,0.00,VWS V14.01,2013-08-27 14:32:00,
2013-08-27 10:37:00,77.6,69.8,29.80,SW,219,0.0,0.0,77,0.00,,CLR,0.00,VWS V14.01,2013-08-27 14:37:00,
2013-08-27 10:47:00,78.6,70.0,29.80,West,265,0.0,0.0,75,0.00,,CLR,0.00,VWS V14.01,2013-08-27 14:47:00,
2013-08-27 10:52:00,79.2,69.8,29.80,SSW,213,0.0,0.0,73,0.00,,CLR,0.00,VWS V14.01,2013-08-27 14:52:00,
2013-08-27 11:02:00,79.9,70.1,29.80,SSW,212,0.0,0.0,72,0.00,,CLR,0.00,VWS V14.01,2013-08-27 15:02:00,
2013-08-27 11:07:00,79.9,70.1,29.80,WSW,246,0.0,0.0,72,0.00,,CLR,0.00,VWS V14.01,2013-08-27 15:07:00,
2013-08-27 11:12:00,80.1,70.3,29.80,WSW,257,0.0,0.0,72,0.00,,CLR,0.00,VWS V14.01,2013-08-27 15:12:00,
2013-08-27 11:17:00,79.9,70.1,29.80,WSW,257,0.0,0.0,72,0.00,,CLR,0.00,VWS V14.01,2013-08-27 15:17:00,
2013-08-27 11:22:00,80.1,70.3,29.80,SW,230,0.0,0.0,72,0.00,,CLR,0.00,VWS V14.01,2013-08-27 15:22:00,
2013-08-27 11:27:00,80.5,70.7,29.80,West,263,0.0,0.0,72,0.00,,CLR,0.00,VWS V14.01,2013-08-27 15:27:00,
2013-08-27 11:32:00,81.1,70.4,29.80,WSW,258,0.0,0.0,70,0.00,,CLR,0.00,VWS V14.01,2013-08-27 15:32:00,
2013-08-27 11:37:00,81.4,70.3,29.80,WSW,243,0.0,0.0,69,0.00,,CLR,0.00,VWS V14.01,2013-08-27 15:37:00,
2013-08-27 11:42:00,82.0,71.3,29.80,SW,215,0.0,0.0,70,0.00,,CLR,0.00,VWS V14.01,2013-08-27 15:42:00,
2013-08-27 11:47:00,82.4,70.8,29.80,WSW,250,0.0,0.0,68,0.00,,CLR,0.00,VWS V14.01,2013-08-27 15:47:00,
2013-08-27 11:52:00,82.8,71.6,29.80,WSW,253,0.0,0.0,69,0.00,,CLR,0.00,VWS V14.01,2013-08-27 15:52:00,
2013-08-27 11:57:00,83.2,71.1,29.80,WSW,239,0.0,0.0,67,0.00,,CLR,0.00,VWS V14.01,2013-08-27 15:57:00,
2013-08-27 12:02:00,83.4,70.9,29.80,SW,234,0.0,0.0,66,0.00,,CLR,0.00,VWS V14.01,2013-08-27 16:02:00,
2013-08-27 12:07:00,83.6,70.6,29.80,SW,220,0.0,0.0,65,0.00,,CLR,0.00,VWS V14.01,2013-08-27 16:07:00,
2013-08-27 12:12:00,83.6,70.6,29.80,WNW,288,0.0,0.0,65,0.00,,CLR,0.00,VWS V14.01,2013-08-27 16:12:00,
2013-08-27 12:17:00,84.0,71.0,29.80,WSW,250,0.0,0.0,65,0.00,,CLR,0.00,VWS V14.01,2013-08-27 16:17:00,
2013-08-27 12:27:00,84.1,71.1,29.80,SW,224,0.0,0.0,65,0.00,,CLR,0.00,VWS V14.01,2013-08-27 16:27:00,
2013-08-27 12:32:00,84.1,70.6,29.80,SW,232,0.0,0.0,64,0.00,,CLR,0.00,VWS V14.01,2013-08-27 16:32:00,
2013-08-27 12:37:00,84.5,71.0,29.80,SW,229,0.0,0.0,64,0.00,,CLR,0.00,VWS V14.01,2013-08-27 16:37:00,
2013-08-27 12:42:00,84.7,70.7,29.80,SW,234,0.0,0.0,63,0.00,,CLR,0.00,VWS V14.01,2013-08-27 16:42:00,
2013-08-27 12:47:00,84.9,70.9,29.79,WSW,237,0.0,0.0,63,0.00,,CLR,0.00,VWS V14.01,2013-08-27 16:47:00,
2013-08-27 12:52:00,84.7,70.7,29.79,SSW,200,0.0,0.0,63,0.00,,CLR,0.00,VWS V14.01,2013-08-27 16:52:00,
2013-08-27 12:57:00,84.9,70.9,29.79,SSW,200,0.0,0.0,63,0.00,,CLR,0.00,VWS V14.01,2013-08-27 16:57:00,
2013-08-27 13:07:00,84.7,71.2,29.79,WSW,250,0.0,0.0,64,0.00,,CLR,0.00,VWS V14.01,2013-08-27 17:07:00,
2013-08-27 13:17:00,84.9,71.4,29.79,SW,216,0.0,0.0,64,0.00,,CLR,0.00,VWS V14.01,2013-08-27 17:17:00,
2013-08-27 13:22:00,85.3,70.8,29.79,SSW,209,0.0,0.0,62,0.00,,CLR,0.00,VWS V14.01,2013-08-27 17:22:00,
2013-08-27 13:32:00,85.3,71.8,29.78,West,272,0.0,0.0,64,0.00,,CLR,0.00,VWS V14.01,2013-08-27 17:32:00,
2013-08-27 13:37:00,85.7,70.7,29.78,SW,219,0.0,0.0,61,0.00,,CLR,0.00,VWS V14.01,2013-08-27 17:37:00,
2013-08-27 13:47:00,85.9,71.8,29.78,SW,223,0.0,0.0,63,0.00,,CLR,0.00,VWS V14.01,2013-08-27 17:47:00,
2013-08-27 13:57:00,86.3,71.8,29.78,SSW,193,0.0,0.0,62,0.00,,CLR,0.00,VWS V14.01,2013-08-27 17:57:00,
2013-08-27 14:02:00,87.2,71.6,29.77,SSW,208,0.0,0.0,60,0.00,,CLR,0.00,VWS V14.01,2013-08-27 18:02:00,
2013-08-27 14:07:00,87.0,71.9,29.77,SW,216,0.0,0.0,61,0.00,,CLR,0.00,VWS V14.01,2013-08-27 18:07:00,
2013-08-27 14:12:00,87.2,72.1,29.77,SW,220,0.0,0.0,61,0.00,,CLR,0.00,VWS V14.01,2013-08-27 18:12:00,
2013-08-27 14:17:00,86.5,71.0,29.76,SW,227,0.0,0.0,60,0.00,,CLR,0.00,VWS V14.01,2013-08-27 18:17:00,
2013-08-27 14:22:00,87.0,71.4,29.76,SW,215,0.0,0.0,60,0.00,,CLR,0.00,VWS V14.01,2013-08-27 18:22:00,
2013-08-27 14:27:00,87.0,71.9,29.76,WSW,250,0.0,0.0,61,0.00,,CLR,0.00,VWS V14.01,2013-08-27 18:27:00,
2013-08-27 14:32:00,87.0,71.9,29.76,SW,234,0.0,0.0,61,0.00,,CLR,0.00,VWS V14.01,2013-08-27 18:32:00,
2013-08-27 14:37:00,87.6,72.0,29.76,SW,227,0.0,0.0,60,0.00,,CLR,0.00,VWS V14.01,2013-08-27 18:37:00,
2013-08-27 14:47:00,87.8,72.7,29.76,SSW,212,0.0,0.0,61,0.00,,CLR,0.00,VWS V14.01,2013-08-27 18:47:00,
2013-08-27 14:57:00,88.0,72.4,29.76,SW,217,0.0,0.0,60,0.00,,CLR,0.00,VWS V14.01,2013-08-27 18:57:00,
2013-08-27 15:02:00,88.0,71.9,29.75,West,265,0.0,0.0,59,0.00,,CLR,0.00,VWS V14.01,2013-08-27 19:02:00,
2013-08-27 15:07:00,88.4,72.8,29.75,WSW,239,0.0,0.0,60,0.00,,CLR,0.00,VWS V14.01,2013-08-27 19:07:00,
2013-08-27 15:12:00,88.8,72.1,29.75,SSW,210,0.0,0.0,58,0.00,,CLR,0.00,VWS V14.01,2013-08-27 19:12:00,
2013-08-27 15:17:00,88.0,71.9,29.75,SSW,202,0.0,0.0,59,0.00,,CLR,0.00,VWS V14.01,2013-08-27 19:17:00,
2013-08-27 15:27:00,87.8,72.2,29.75,South,169,0.0,0.0,60,0.00,,CLR,0.00,VWS V14.01,2013-08-27 19:27:00,
2013-08-27 15:32:00,88.2,71.6,29.74,SSW,209,0.0,0.0,58,0.00,,CLR,0.00,VWS V14.01,2013-08-27 19:32:00,
2013-08-27 15:37:00,88.8,72.1,29.74,SSW,206,0.0,0.0,58,0.00,,CLR,0.00,VWS V14.01,2013-08-27 19:37:00,
2013-08-27 15:42:00,89.5,72.8,29.74,SW,230,0.0,0.0,58,0.00,,CLR,0.00,VWS V14.01,2013-08-27 19:42:00,
2013-08-27 15:47:00,89.3,72.6,29.73,South,169,0.0,0.0,58,0.00,,CLR,0.00,VWS V14.01,2013-08-27 19:47:00,
2013-08-27 15:52:00,88.6,72.9,29.73,SW,232,0.0,0.0,60,0.00,,CLR,0.00,VWS V14.01,2013-08-27 19:52:00,
2013-08-27 15:57:00,88.0,72.4,29.73,WSW,237,0.0,0.0,60,0.00,,CLR,0.00,VWS V14.01,2013-08-27 19:57:00,
2013-08-27 16:07:00,88.6,71.4,29.73,SW,219,0.0,0.0,57,0.00,,CLR,0.00,VWS V14.01,2013-08-27 20:07:00,
2013-08-27 16:12:00,88.6,70.9,29.73,SSW,206,0.0,0.0,56,0.00,,CLR,0.00,VWS V14.01,2013-08-27 20:12:00,
2013-08-27 16:17:00,88.8,71.6,29.73,SW,223,0.0,0.0,57,0.00,,CLR,0.00,VWS V14.01,2013-08-27 20:17:00,
2013-08-27 16:22:00,89.0,71.3,29.73,WSW,253,0.0,0.0,56,0.00,,CLR,0.00,VWS V14.01,2013-08-27 20:22:00,
2013-08-27 16:27:00,88.6,70.9,29.73,SSW,202,0.0,0.0,56,0.00,,CLR,0.00,VWS V14.01,2013-08-27 20:27:00,
2013-08-27 16:32:00,88.6,71.4,29.72,SW,233,0.0,0.0,57,0.00,,CLR,0.00,VWS V14.01,2013-08-27 20:32:00,
2013-08-27 16:37:00,89.0,71.8,29.72,SSW,200,0.0,0.0,57,0.00,,CLR,0.00,VWS V14.01,2013-08-27 20:37:00,
2013-08-27 16:42:00,88.4,71.8,29.72,South,185,0.0,0.0,58,0.00,,CLR,0.00,VWS V14.01,2013-08-27 20:42:00,
2013-08-27 16:47:00,88.4,71.8,29.72,SW,219,0.0,0.0,58,0.00,,CLR,0.00,VWS V14.01,2013-08-27 20:47:00,
2013-08-27 16:52:00,88.8,71.6,29.72,WSW,239,0.0,0.0,57,0.00,,CLR,0.00,VWS V14.01,2013-08-27 20:52:00,
2013-08-27 17:02:00,89.3,71.6,29.72,SW,222,0.0,0.0,56,0.00,,CLR,0.00,VWS V14.01,2013-08-27 21:02:00,
2013-08-27 17:07:00,90.1,71.2,29.72,SSW,200,0.0,0.0,54,0.00,,CLR,0.00,VWS V14.01,2013-08-27 21:07:00,
2013-08-27 17:12:00,89.9,69.9,29.72,SW,236,0.0,0.0,52,0.00,,CLR,0.00,VWS V14.01,2013-08-27 21:12:00,
2013-08-27 17:17:00,89.9,69.4,29.72,WSW,248,0.0,0.0,51,0.00,,CLR,0.00,VWS V14.01,2013-08-27 21:17:00,
2013-08-27 17:22:00,89.3,69.4,29.72,SSW,212,0.0,0.0,52,0.00,,CLR,0.00,VWS V14.01,2013-08-27 21:22:00,
2013-08-27 17:42:00,89.5,70.1,29.72,SSW,213,0.0,0.0,53,0.00,,FEW035,0.00,VWS V14.01,2013-08-27 21:42:00,
2013-08-27 17:52:00,89.0,70.2,29.72,SSW,203,0.0,0.0,54,0.00,,FEW035,0.00,VWS V14.01,2013-08-27 21:52:00,
2013-08-27 17:57:00,89.3,71.0,29.72,SSW,212,0.0,0.0,55,0.00,,FEW035,0.00,VWS V14.01,2013-08-27 21:57:00,
2013-08-27 18:07:00,89.3,68.8,29.72,WSW,241,0.0,0.0,51,0.00,,FEW035,0.00,VWS V14.01,2013-08-27 22:07:00,
2013-08-27 18:12:00,89.9,68.8,29.72,SSW,212,0.0,0.0,50,0.00,,FEW035,0.00,VWS V14.01,2013-08-27 22:12:00,
2013-08-27 18:22:00,89.3,68.8,29.72,SW,215,0.0,0.0,51,0.00,,FEW035,0.00,VWS V14.01,2013-08-27 22:22:00,
2013-08-27 18:27:00,89.0,69.1,29.72,SW,227,0.0,0.0,52,0.00,,FEW035,0.00,VWS V14.01,2013-08-27 22:27:00,
2013-08-27 18:32:00,89.0,69.1,29.72,SW,226,0.0,0.0,52,0.00,,FEW035,0.00,VWS V14.01,2013-08-27 22:32:00,
2013-08-27 18:37:00,88.8,69.5,29.72,SW,229,0.0,0.0,53,0.00,,FEW035,0.00,VWS V14.01,2013-08-27 22:37:00,
2013-08-27 18:42:00,88.8,69.5,29.72,WSW,237,0.0,0.0,53,0.00,,FEW035,0.00,VWS V14.01,2013-08-27 22:42:00,
2013-08-27 18:47:00,88.6,69.8,29.72,SW,229,0.0,0.0,54,0.00,,FEW035,0.00,VWS V14.01,2013-08-27 22:47:00,
2013-08-27 18:52:00,88.8,70.0,29.72,SSW,203,0.0,0.0,54,0.00,,FEW035,0.00,VWS V14.01,2013-08-27 22:52:00,
2013-08-27 18:57:00,88.8,70.0,29.72,SSW,209,0.0,0.0,54,0.00,,FEW035,0.00,VWS V14.01,2013-08-27 22:57:00,
2013-08-27 19:02:00,88.4,70.2,29.71,SW,224,0.0,0.0,55,0.00,,FEW035,0.00,VWS V14.01,2013-08-27 23:02:00,
2013-08-27 19:07:00,88.0,70.3,29.71,SSW,203,0.0,0.0,56,0.00,,FEW035,0.00,VWS V14.01,2013-08-27 23:07:00,
2013-08-27 19:12:00,87.6,70.5,29.71,SSW,213,0.0,0.0,57,0.00,,FEW035,0.00,VWS V14.01,2013-08-27 23:12:00,
2013-08-27 19:17:00,87.4,70.3,29.71,SW,216,0.0,0.0,57,0.00,,FEW035,0.00,VWS V14.01,2013-08-27 23:17:00,
2013-08-27 19:22:00,87.4,70.8,29.71,SSW,205,0.0,0.0,58,0.00,,FEW035,0.00,VWS V14.01,2013-08-27 23:22:00,
2013-08-27 19:27:00,87.2,70.6,29.71,SW,223,0.0,0.0,58,0.00,,FEW035,0.00,VWS V14.01,2013-08-27 23:27:00,
2013-08-27 19:32:00,87.0,70.9,29.71,SW,226,0.0,0.0,59,0.00,,FEW035,0.00,VWS V14.01,2013-08-27 23:32:00,
2013-08-27 19:37:00,86.5,70.5,29.71,SSW,208,0.0,0.0,59,0.00,,FEW035,0.00,VWS V14.01,2013-08-27 23:37:00,
2013-08-27 19:42:00,86.3,70.8,29.71,SW,223,0.0,0.0,60,0.00,,CLR,0.00,VWS V14.01,2013-08-27 23:42:00,
2013-08-27 19:47:00,86.1,71.1,29.71,SSW,212,0.0,0.0,61,0.00,,CLR,0.00,VWS V14.01,2013-08-27 23:47:00,
2013-08-27 19:57:00,85.7,71.2,29.71,SSW,208,0.0,0.0,62,0.00,,CLR,0.00,VWS V14.01,2013-08-27 23:57:00,
2013-08-27 20:02:00,85.3,71.3,29.71,SSW,202,0.0,0.0,63,0.00,,CLR,0.00,VWS V14.01,2013-08-28 00:02:00,
2013-08-27 20:12:00,84.9,71.4,29.71,SSW,210,0.0,0.0,64,0.00,,CLR,0.00,VWS V14.01,2013-08-28 00:12:00,
2013-08-27 20:22:00,84.1,71.5,29.71,South,186,0.0,0.0,66,0.00,,CLR,0.00,VWS V14.01,2013-08-28 00:22:00,
2013-08-27 20:27:00,83.8,71.2,29.71,SSW,198,0.0,0.0,66,0.00,,CLR,0.00,VWS V14.01,2013-08-28 00:27:00,
2013-08-27 20:32:00,83.8,71.7,29.71,SSW,212,0.0,0.0,67,0.00,,CLR,0.00,VWS V14.01,2013-08-28 00:32:00,
2013-08-27 20:42:00,83.2,71.6,29.71,South,176,0.0,0.0,68,0.00,,CLR,0.00,VWS V14.01,2013-08-28 00:42:00,
2013-08-27 20:47:00,83.0,71.4,29.72,SSW,206,0.0,0.0,68,0.00,,CLR,0.00,VWS V14.01,2013-08-28 00:47:00,
2013-08-27 20:57:00,82.6,71.0,29.72,SW,215,0.0,0.0,68,0.00,,CLR,0.00,VWS V14.01,2013-08-28 00:57:00,
2013-08-27 21:07:00,82.2,71.0,29.71,SSW,202,0.0,0.0,69,0.00,,CLR,0.00,VWS V14.01,2013-08-28 01:07:00,
2013-08-27 21:12:00,82.2,71.0,29.71,SW,223,0.0,0.0,69,0.00,,CLR,0.00,VWS V14.01,2013-08-28 01:12:00,
2013-08-27 21:17:00,82.0,70.8,29.71,SW,217,0.0,0.0,69,0.00,,CLR,0.00,VWS V14.01,2013-08-28 01:17:00,
2013-08-27 21:22:00,81.6,70.4,29.71,SW,215,0.0,0.0,69,0.00,,CLR,0.00,VWS V14.01,2013-08-28 01:22:00,
2013-08-27 21:27:00,81.6,70.4,29.71,SSW,210,0.0,0.0,69,0.00,,CLR,0.00,VWS V14.01,2013-08-28 01:27:00,
2013-08-27 21:32:00,81.4,70.3,29.71,SSW,206,0.0,0.0,69,0.00,,CLR,0.00,VWS V14.01,2013-08-28 01:32:00,
2013-08-27 21:37:00,81.4,70.3,29.71,SSW,202,0.0,0.0,69,0.00,,CLR,0.00,VWS V14.01,2013-08-28 01:37:00,
2013-08-27 21:42:00,81.2,70.1,29.71,SW,215,0.0,0.0,69,0.00,,CLR,0.00,VWS V14.01,2013-08-28 01:42:00,
2013-08-27 21:47:00,81.1,70.4,29.71,SSW,200,0.0,0.0,70,0.00,,CLR,0.00,VWS V14.01,2013-08-28 01:47:00,
2013-08-27 21:57:00,80.7,70.4,29.71,SW,220,0.0,0.0,71,0.00,,CLR,0.00,VWS V14.01,2013-08-28 01:57:00,
2013-08-27 22:02:00,80.5,70.2,29.71,SSW,200,0.0,0.0,71,0.00,,CLR,0.00,VWS V14.01,2013-08-28 02:02:00,
2013-08-27 22:07:00,80.5,70.2,29.71,SSW,210,0.0,0.0,71,0.00,,CLR,0.00,VWS V14.01,2013-08-28 02:07:00,
2013-08-27 22:12:00,80.3,70.1,29.71,SSW,210,0.0,0.0,71,0.00,,CLR,0.00,VWS V14.01,2013-08-28 02:12:00,
2013-08-27 22:17:00,80.3,70.5,29.72,SW,215,0.0,0.0,72,0.00,,CLR,0.00,VWS V14.01,2013-08-28 02:17:00,
2013-08-27 22:22:00,80.1,70.3,29.72,SW,215,0.0,0.0,72,0.00,,CLR,0.00,VWS V14.01,2013-08-28 02:22:00,
2013-08-27 22:27:00,80.1,70.3,29.72,SSW,209,0.0,0.0,72,0.00,,CLR,0.00,VWS V14.01,2013-08-28 02:27:00,
2013-08-27 22:37:00,79.9,70.1,29.72,SW,220,0.0,0.0,72,0.00,,CLR,0.00,VWS V14.01,2013-08-28 02:37:00,
2013-08-27 22:42:00,79.9,70.1,29.72,SSW,209,0.0,0.0,72,0.00,,SCT110,0.00,VWS V14.01,2013-08-28 02:42:00,
2013-08-27 22:47:00,79.8,70.0,29.71,SSW,209,0.0,0.0,72,0.00,,SCT110,0.00,VWS V14.01,2013-08-28 02:47:00,
2013-08-27 22:57:00,79.8,70.0,29.71,SSW,206,0.0,0.0,72,0.00,,SCT110,0.00,VWS V14.01,2013-08-28 02:57:00,
2013-08-27 23:02:00,79.8,70.0,29.70,SW,216,0.0,0.0,72,0.00,,SCT110,0.00,VWS V14.01,2013-08-28 03:02:00,
2013-08-27 23:07:00,79.6,69.8,29.70,SW,219,0.0,0.0,72,0.00,,SCT110,0.00,VWS V14.01,2013-08-28 03:07:00,
2013-08-27 23:17:00,79.6,69.8,29.70,SW,226,0.0,0.0,72,0.00,,SCT110,0.00,VWS V14.01,2013-08-28 03:17:00,
2013-08-27 23:22:00,79.4,69.6,29.70,SSW,212,0.0,0.0,72,0.00,,SCT110,0.00,VWS V14.01,2013-08-28 03:22:00,
2013-08-27 23:27:00,79.4,69.6,29.70,SW,215,0.0,0.0,72,0.00,,SCT110,0.00,VWS V14.01,2013-08-28 03:27:00,
2013-08-27 23:32:00,79.4,69.6,29.70,SW,226,0.0,0.0,72,0.00,,SCT110,0.00,VWS V14.01,2013-08-28 03:32:00,
2013-08-27 23:37:00,79.2,69.4,29.70,WSW,254,0.0,0.0,72,0.00,,SCT110,0.00,VWS V14.01,2013-08-28 03:37:00,
2013-08-27 23:47:00,79.0,69.2,29.70,SW,216,0.0,0.0,72,0.00,,FEW110,0.00,VWS V14.01,2013-08-28 03:47:00,
2013-08-27 23:52:00,78.8,69.0,29.70,SE,145,0.0,0.0,72,0.00,,FEW110,0.00,VWS V14.01,2013-08-28 03:52:00,
2013-08-27 23:57:00,78.8,69.0,29.70,SW,222,0.0,0.0,72,0.00,,FEW110,0.00,VWS V14.01,2013-08-28 03:57:00,